LEPA

Palma de Mallorca

Airport
ICAO code
LEPA
Summary
ICAO Region
EUR
ICAO Territory
Location

Palma de Mallorca, Baleariac Islands,

Coordinates
39° 33' 2" N , 2° 44' 5" E
KCC
Airport RI
Runway Misidentification
Metar
Observation
LEPA 272330Z 32004KT 290V360 9999 FEW027 22/14 Q1012 NOSIG
Station
Palma De Mallorca / Son San Juan
Date/Time
2022-09-27 23:30:00
Wind direction
320°
Wind speed
04 kts
Lowest cloud amount
few clouds
Temperature
22°C
Dew point
14°C
Humidity
60%
QNH
1012 hPa
Weather condition
n/a

Description

International airport serving the island of Majorca.

Climatology

Dry-summer subtropical ”Mediterranean" climate (Köppen climate classification Csa) - characterized by hot, dry summers and mild winters. During the summer, subtropical high pressure cells dominate, making rainfall unlikely except for the occasional thunderstorm. In the winter, periodic storms bring rain.

Runways

Designator Length Width Surface Rops
06R/24L 3000 45 ASP Yes/Yes
06L/24R 3270 45 ASP Yes/Yes

Airport map

Aerial View

SKYbrary Partners:

Safety knowledge contributed by: